#timestamp,LO_Frequency,Hit,StdDev 
1458896415.5,286046985.2,N
1458896435.3,286046983.6,N
1458896455.2,286046981.2,Y
1458896475.9,286046997.0,P
1458896495.7,286046999.7,N
1458896515.5,286047005.5,N
1458896535.4,286047007.9,N
1458896555.2,286047009.3,N
1458896575.0,286047013.8,N
1458896575.9,286047013.8,N
1458896595.8,286047016.3,N
1458896615.6,286047020.0,N
1458896635.4,286047018.2,N
1458896655.3,286047018.2,N
1458896675.1,286047021.3,N
1458896676.0,286047021.3,N
1458896695.8,286047025.1,N
1458896715.7,286047022.6,N
1458896735.5,286047023.1,N
1458896755.3,286047020.4,N
1458896775.2,286047017.4,N
1458896795.9,286047022.6,N
1458896815.7,286047022.1,N
1458896835.5,286047022.7,N
1458896855.4,286047026.3,N
1458896875.2,286047023.0,N
1458896895.0,286047024.2,N
1458896895.9,286047024.2,N
1458896915.8,286047028.3,N
1458896935.6,286047026.4,N
1458896955.4,286047024.4,N
1458896975.3,286047021.5,N
1458896995.1,286047020.8,N
1458896996.0,286047020.8,N
1458897015.8,286047017.4,N
1458897035.7,286047018.5,Y
1458897055.5,286046995.7,P
1458897075.3,286046995.6,N
1458897095.2,286046995.3,N
1458897115.9,286046995.3,N
1458897135.7,286046995.4,N
1458897155.6,286046996.0,N
1458897175.4,286046999.2,N
1458897195.2,286047002.8,N
1458897215.0,286047002.3,N
1458897216.0,286047002.3,N
1458897235.8,286047002.9,N
1458897255.6,286047004.9,N
1458897275.4,286047006.9,N
1458897295.3,286047005.0,N
1458897315.1,286047006.0,N
1458897335.8,286047051.3,Y
1458897355.7,286047093.3,P
1458897375.5,286047126.9,N
1458897395.3,286047151.9,N
1458897415.2,286047163.2,N
1458897435.9,286047145.6,N
1458897455.7,286047114.4,N
1458897475.6,286047094.6,N
1458897495.4,286047083.7,N
1458897515.2,286047076.6,N
1458897535.1,286047068.1,N
1458897536.0,286047068.1,N
1458897555.8,286047059.3,N
1458897575.6,286047052.8,N
1458897595.4,286047053.9,N
1458897615.3,286047053.7,N
1458897635.1,286047052.8,N
1458897655.8,286047054.0,N
1458897675.7,286047052.1,N
1458897695.5,286047047.1,N
1458897715.3,286047043.6,N
1458897735.2,286047041.5,N
1458897755.9,286047036.6,N
1458897775.7,286047037.6,N
1458897795.6,286047036.7,N
1458897815.4,286047033.8,N
1458897835.2,286047033.1,N
1458897855.1,286047030.4,N
1458897856.0,286047030.4,N
1458897875.8,286047027.6,N
1458897895.6,286047027.2,N
1458897915.4,286047027.4,N
1458897935.3,286047025.6,N
1458897955.1,286047041.4,N
1458897975.8,286047055.5,N
1458897995.7,286047045.0,N
1458898015.5,286047039.3,N
1458898035.3,286047032.6,N
1458898055.2,286047027.3,N
1458898075.9,286047030.0,N
1458898095.7,286047029.1,N
1458898115.6,286047029.6,N
1458898135.4,286047026.5,N
1458898155.2,286047024.5,N
1458898175.1,286047023.2,N
1458898176.0,286047023.2,N
1458898195.8,286047021.4,N
1458898215.6,286047020.8,N
1458898235.5,286047019.2,N
1458898255.3,286047020.2,N
1458898275.1,286047021.3,N
1458898295.8,286047018.6,N
1458898315.7,286047018.3,N
1458898335.5,286047015.3,N
1458898355.3,286047015.5,N
1458898375.2,286047016.3,N
1458898395.0,286047015.6,N
1458898395.9,286047015.6,N
1458898415.7,286047012.3,N
1458898435.6,286047010.3,N
1458898455.4,286047010.1,N
1458898475.2,286047009.2,N
1458898495.1,286047009.9,N
1458898496.0,286047009.9,N
1458898515.8,286047012.3,N
1458898535.6,286047012.5,N
1458898555.5,286047013.5,N
1458898575.3,286047011.7,N
1458898595.1,286047011.9,N
1458898615.9,286047007.8,N
1458898635.7,286047007.4,N
1458898655.5,286047008.5,N
1458898675.3,286047009.0,N
1458898695.2,286047007.3,N
1458898715.0,286047006.5,N
1458898715.9,286047006.5,N
1458898735.7,286047004.6,N
1458898755.6,286047005.8,N
1458898775.4,286047006.0,N
1458898795.2,286047005.6,N
1458898815.1,286047003.3,N
1458898816.0,286047003.3,N
1458898835.8,286047003.7,N
1458898855.6,286047004.7,N
1458898875.5,286047003.2,N
1458898895.3,286047001.8,N
1458898915.1,286047003.9,N
1458898935.9,286047001.6,N
1458898955.7,286047000.7,N
1458898975.5,286047001.0,N
1458898995.4,286047001.1,N
1458899015.2,286046999.3,N
1458899035.0,286046993.7,N
1458899035.9,286046993.7,N
1458899055.8,286046994.1,N
1458899075.6,286046994.5,N
1458899095.4,286046995.8,N
1458899115.2,286047000.6,N
1458899135.1,286047000.2,N
1458899136.0,286047000.2,N
1458899155.8,286046999.2,N
1458899175.6,286046993.3,N
1458899195.5,286046990.6,N
1458899215.3,286046988.7,N
1458899235.1,286046988.9,N
1458899255.9,286046990.5,N
1458899275.7,286046992.2,N
1458899295.5,286046992.8,N
1458899315.4,286046990.7,N
1458899335.2,286046992.0,N
1458899355.0,286046992.3,N
1458899355.9,286046992.3,N
1458899375.8,286046992.0,N
1458899395.6,286046991.9,N
1458899415.4,286046996.1,N
1458899435.3,286046997.7,N
1458899455.1,286046993.7,N
1458899456.0,286046993.7,N
1458899475.8,286046995.6,N
1458899495.7,286046997.7,N
1458899515.5,286046998.0,N
1458899535.3,286046993.8,N
1458899555.1,286046995.8,N
1458899575.9,286046995.0,N
1458899595.7,286046999.5,N
1458899615.5,286046999.4,N
1458899635.4,286046997.2,N
1458899655.2,286046996.6,N
1458899675.0,286046997.8,N
1458899675.9,286046997.8,N
1458899695.8,286046995.1,N
1458899715.6,286046994.6,N
1458899735.4,286046993.7,N
1458899755.3,286046995.1,N
1458899775.1,286046997.6,N
1458899776.0,286046997.6,N
1458899795.8,286047001.0,N
1458899815.7,286046999.1,N
1458899835.5,286046998.4,N
1458899855.3,286046995.8,N
1458899875.2,286046999.1,N
1458899895.9,286046999.2,N
1458899915.7,286046997.6,N
1458899935.6,286046997.0,N
1458899955.4,286046999.0,N
1458899975.2,286046998.9,N
1458899995.0,286047000.0,N
1458899995.9,286047000.0,N
